| time (UTC) | temp F | wind direction | speed MPH | gust MPH | rain 1hr in | rain 24hr in | rain mn in | humidity % | barometer mb |
| 20260510174508 | 46 | 277 | 7.0 | 15.0 | 0.00 | 0.05 | 0.00 | 78 | 1018.0 |
| 20260510174056 | 46 | 271 | 4.0 | 14.0 | 0.00 | 0.05 | 0.00 | 80 | 1017.9 |
| 20260510173557 | 46 | 259 | 6.0 | 14.0 | 0.00 | 0.05 | 0.00 | 79 | 1017.9 |
| 20260510173055 | 46 | 259 | 6.0 | 14.0 | 0.00 | 0.05 | 0.00 | 78 | 1017.9 |
| 20260510172552 | 46 | 302 | 3.0 | 14.0 | 0.00 | 0.05 | 0.00 | 80 | 1017.8 |
| 20260510172052 | 46 | 302 | 2.0 | 16.0 | 0.00 | 0.05 | 0.00 | 81 | 1017.8 |
| 20260510171552 | 46 | 248 | 6.0 | 14.0 | 0.00 | 0.05 | 0.00 | 80 | 1017.7 |
| 20260510171053 | 46 | 238 | 5.0 | 12.0 | 0.00 | 0.05 | 0.00 | 80 | 1017.7 |
| 20260510170550 | 46 | 286 | 5.0 | 12.0 | 0.00 | 0.05 | 0.00 | 80 | 1017.6 |
| 20260510170049 | 46 | 269 | 3.0 | 15.0 | 0.00 | 0.05 | 0.00 | 80 | 1017.6 |
| 20260510165549 | 46 | 261 | 6.0 | 15.0 | 0.00 | 0.05 | 0.00 | 79 | 1017.6 |
| 20260510165050 | 46 | 313 | 4.0 | 12.0 | 0.00 | 0.05 | 0.00 | 81 | 1017.6 |
| 20260510164546 | 45 | 227 | 2.0 | 14.0 | 0.00 | 0.06 | 0.00 | 82 | 1017.4 |
| 20260510164045 | 45 | 266 | 6.0 | 14.0 | 0.00 | 0.06 | 0.00 | 81 | 1017.5 |
| 20260510163544 | 45 | 289 | 5.0 | 14.0 | 0.00 | 0.06 | 0.00 | 82 | 1017.5 |
| 20260510163048 | 45 | 275 | 6.0 | 14.0 | 0.00 | 0.06 | 0.00 | 82 | 1017.5 |
| 20260510162545 | 44 | 313 | 4.0 | 14.0 | 0.00 | 0.06 | 0.00 | 82 | 1017.4 |
| 20260510162043 | 44 | 248 | 6.0 | 16.0 | 0.00 | 0.06 | 0.00 | 83 | 1017.3 |
| 20260510161542 | 44 | 278 | 7.0 | 14.0 | 0.00 | 0.06 | 0.00 | 82 | 1017.4 |
| 20260510161042 | 44 | 281 | 6.0 | 14.0 | 0.00 | 0.06 | 0.00 | 83 | 1017.4 |
| 20260510160543 | 44 | 284 | 8.0 | 14.0 | 0.00 | 0.06 | 0.00 | 82 | 1017.4 |
| 20260510160042 | 44 | 272 | 3.0 | 14.0 | 0.00 | 0.06 | 0.00 | 83 | 1017.3 |
| 20260510155542 | 44 | 271 | 6.0 | 14.0 | 0.00 | 0.06 | 0.00 | 82 | 1017.2 |
| 20260510155040 | 44 | 267 | 8.0 | 14.0 | 0.00 | 0.06 | 0.00 | 81 | 1017.2 |
| 20260510154540 | 44 | 241 | 8.0 | 14.0 | 0.00 | 0.06 | 0.00 | 81 | 1017.2 |
| 20260510154024 | 44 | 271 | 6.0 | 13.0 | 0.00 | 0.06 | 0.00 | 80 | 1017.2 |
| 20260510153525 | 45 | 258 | 8.0 | 14.0 | 0.00 | 0.06 | 0.00 | 80 | 1017.1 |
| 20260510153020 | 45 | 313 | 7.0 | 14.0 | 0.00 | 0.06 | 0.00 | 80 | 1016.9 |
| 20260510152519 | 44 | 330 | 2.0 | 10.0 | 0.00 | 0.06 | 0.00 | 80 | 1016.8 |
| 20260510152022 | 44 | 19 | 5.0 | 11.0 | 0.00 | 0.06 | 0.00 | 80 | 1016.7 |
| 20260510151518 | 44 | 294 | 5.0 | 12.0 | 0.00 | 0.06 | 0.00 | 80 | 1016.8 |
| 20260510151008 | 44 | 12 | 4.0 | 12.0 | 0.00 | 0.06 | 0.00 | 80 | 1016.7 |
| 20260510150508 | 44 | 319 | 5.0 | 12.0 | 0.00 | 0.06 | 0.00 | 81 | 1016.6 |
| 20260510150006 | 44 | 9 | 6.0 | 11.0 | 0.00 | 0.06 | 0.00 | 81 | 1016.5 |
| 20260510145504 | 44 | 263 | 4.0 | 10.0 | 0.00 | 0.06 | 0.00 | 82 | 1016.4 |
| 20260510145004 | 44 | 342 | 5.0 | 11.0 | 0.00 | 0.06 | 0.00 | 82 | 1016.4 |
| 20260510144505 | 44 | 296 | 5.0 | 11.0 | 0.00 | 0.06 | 0.00 | 82 | 1016.3 |
| 20260510144003 | 43 | 319 | 3.0 | 10.0 | 0.00 | 0.06 | 0.00 | 84 | 1016.3 |
| 20260510143503 | 43 | 265 | 3.0 | 10.0 | 0.00 | 0.06 | 0.00 | 83 | 1016.1 |
| 20260510143001 | 43 | 310 | 2.0 | 11.0 | 0.00 | 0.06 | 0.00 | 84 | 1016.0 |
| 20260510142502 | 43 | 344 | 4.0 | 11.0 | 0.00 | 0.06 | 0.00 | 84 | 1016.0 |
| 20260510142101 | 43 | 331 | 6.0 | 12.0 | 0.00 | 0.06 | 0.00 | 83 | 1015.8 |
| 20260510141600 | 43 | 304 | 3.0 | 12.0 | 0.00 | 0.06 | 0.00 | 85 | 1015.9 |
| 20260510141100 | 42 | 281 | 5.0 | 12.0 | 0.00 | 0.06 | 0.00 | 85 | 1015.8 |
| 20260510140558 | 42 | 342 | 6.0 | 12.0 | 0.00 | 0.06 | 0.00 | 84 | 1015.8 |
| 20260510140058 | 42 | 346 | 5.0 | 13.0 | 0.00 | 0.06 | 0.00 | 84 | 1015.7 |
| 20260510135558 | 42 | 270 | 6.0 | 13.0 | 0.00 | 0.06 | 0.00 | 85 | 1015.7 |
| 20260510135100 | 42 | 303 | 4.0 | 10.0 | 0.00 | 0.06 | 0.00 | 85 | 1015.6 |
| 20260510134605 | 42 | 343 | 4.0 | 11.0 | 0.00 | 0.06 | 0.00 | 85 | 1015.5 |
| 20260510134055 | 42 | 240 | 5.0 | 11.0 | 0.00 | 0.06 | 0.00 | 85 | 1015.5 |
| 20260510133556 | 42 | 326 | 6.0 | 12.0 | 0.00 | 0.06 | 0.00 | 85 | 1015.5 |
| 20260510133055 | 42 | 306 | 6.0 | 12.0 | 0.00 | 0.06 | 0.00 | 85 | 1015.4 |
| 20260510132556 | 42 | 274 | 3.0 | 14.0 | 0.00 | 0.06 | 0.00 | 86 | 1015.3 |
| 20260510132054 | 42 | 9 | 6.0 | 13.0 | 0.00 | 0.06 | 0.00 | 86 | 1015.2 |
| 20260510131553 | 42 | 298 | 5.0 | 11.0 | 0.00 | 0.06 | 0.00 | 86 | 1015.2 |
| 20260510131035 | 42 | 337 | 4.0 | 11.0 | 0.00 | 0.06 | 0.00 | 86 | 1015.0 |
| 20260510130534 | 42 | 339 | 4.0 | 9.0 | 0.00 | 0.06 | 0.00 | 87 | 1015.0 |
| 20260510130034 | 42 | 346 | 2.0 | 12.0 | 0.00 | 0.06 | 0.00 | 87 | 1015.0 |
| 20260510125536 | 42 | 14 | 4.0 | 12.0 | 0.00 | 0.06 | 0.00 | 87 | 1014.9 |
| 20260510125032 | 42 | 281 | 7.0 | 13.0 | 0.00 | 0.06 | 0.00 | 87 | 1014.8 |
| 20260510124533 | 42 | 296 | 4.0 | 13.0 | 0.00 | 0.06 | 0.00 | 88 | 1014.8 |
| 20260510124019 | 41 | 16 | 5.0 | 12.0 | 0.00 | 0.06 | 0.00 | 88 | 1014.7 |
| 20260510123519 | 41 | 10 | 6.0 | 12.0 | 0.00 | 0.06 | 0.00 | 88 | 1014.7 |
| 20260510123019 | 42 | 311 | 5.0 | 10.0 | 0.00 | 0.06 | 0.00 | 88 | 1014.6 |
| 20260510122518 | 42 | 309 | 4.0 | 10.0 | 0.00 | 0.06 | 0.00 | 89 | 1014.5 |
| 20260510122017 | 41 | 318 | 5.0 | 10.0 | 0.00 | 0.06 | 0.00 | 90 | 1014.3 |
| 20260510121516 | 41 | 336 | 4.0 | 9.0 | 0.00 | 0.06 | 0.00 | 91 | 1014.2 |
| 20260510121015 | 41 | 321 | 2.0 | 12.0 | 0.00 | 0.06 | 0.00 | 91 | 1014.2 |
| 20260510120516 | 40 | 351 | 3.0 | 12.0 | 0.00 | 0.06 | 0.00 | 92 | 1014.2 |
| 20260510120015 | 40 | 360 | 3.0 | 13.0 | 0.00 | 0.06 | 0.00 | 92 | 1014.1 |
| 20260510115515 | 40 | 30 | 6.0 | 13.0 | 0.00 | 0.06 | 0.00 | 92 | 1014.0 |
| 20260510115014 | 40 | 344 | 6.0 | 14.0 | 0.00 | 0.06 | 0.00 | 91 | 1013.9 |
| 20260510114517 | 40 | 360 | 6.0 | 16.0 | 0.00 | 0.06 | 0.00 | 91 | 1013.8 |
| 20260510114011 | 40 | 315 | 6.0 | 13.0 | 0.00 | 0.06 | 0.00 | 91 | 1013.6 |
| 20260510113511 | 40 | 13 | 5.0 | 14.0 | 0.00 | 0.06 | 0.00 | 92 | 1013.7 |
| 20260510113010 | 40 | 360 | 6.0 | 14.0 | 0.00 | 0.06 | 0.00 | 92 | 1013.7 |
| 20260510112510 | 40 | 348 | 5.0 | 13.0 | 0.00 | 0.06 | 0.00 | 92 | 1013.6 |
| 20260510112009 | 40 | 360 | 5.0 | 13.0 | 0.00 | 0.06 | 0.00 | 92 | 1013.4 |
| 20260510111514 | 40 | 301 | 5.0 | 13.0 | 0.00 | 0.06 | 0.00 | 92 | 1013.3 |
| 20260510111006 | 40 | 335 | 5.0 | 16.0 | 0.00 | 0.06 | 0.00 | 92 | 1013.2 |
| 20260510110507 | 40 | 308 | 4.0 | 15.0 | 0.00 | 0.06 | 0.00 | 92 | 1013.0 |
| 20260510110009 | 40 | 277 | 6.0 | 15.0 | 0.00 | 0.06 | 0.00 | 92 | 1012.9 |
| 20260510105503 | 40 | 290 | 5.0 | 18.0 | 0.00 | 0.06 | 0.00 | 92 | 1012.8 |
| 20260510105002 | 40 | 245 | 6.0 | 18.0 | 0.00 | 0.06 | 0.00 | 92 | 1012.6 |
| 20260510104502 | 40 | 324 | 4.0 | 12.0 | 0.00 | 0.06 | 0.00 | 92 | 1012.5 |
| 20260510104004 | 40 | 313 | 4.0 | 13.0 | 0.00 | 0.06 | 0.00 | 92 | 1012.4 |
| 20260510103550 | 40 | 283 | 5.0 | 15.0 | 0.00 | 0.06 | 0.00 | 91 | 1012.4 |
| 20260510103051 | 40 | 329 | 5.0 | 15.0 | 0.00 | 0.06 | 0.00 | 91 | 1012.3 |
| 20260510102549 | 40 | 265 | 4.0 | 10.0 | 0.00 | 0.06 | 0.00 | 91 | 1012.3 |
| 20260510102049 | 40 | 355 | 5.0 | 11.0 | 0.00 | 0.06 | 0.00 | 91 | 1012.1 |
| 20260510101550 | 40 | 321 | 5.0 | 11.0 | 0.00 | 0.06 | 0.00 | 91 | 1012.0 |
| 20260510101047 | 40 | 321 | 4.0 | 10.0 | 0.00 | 0.06 | 0.00 | 91 | 1012.0 |
| 20260510100549 | 40 | 360 | 6.0 | 14.0 | 0.00 | 0.06 | 0.00 | 91 | 1011.9 |
| 20260510100109 | 40 | 290 | 5.0 | 14.0 | 0.00 | 0.06 | 0.00 | 91 | 1011.8 |
| 20260510095543 | 40 | 337 | 4.0 | 12.0 | 0.00 | 0.06 | 0.00 | 91 | 1011.7 |
| 20260510095042 | 40 | 22 | 6.0 | 13.0 | 0.00 | 0.06 | 0.00 | 91 | 1011.6 |
| 20260510094543 | 40 | 355 | 5.0 | 14.0 | 0.00 | 0.06 | 0.00 | 91 | 1011.5 |
| 20260510094041 | 39 | 348 | 4.0 | 14.0 | 0.00 | 0.06 | 0.00 | 91 | 1011.5 |
| 20260510093539 | 39 | 331 | 7.0 | 14.0 | 0.00 | 0.06 | 0.00 | 91 | 1011.4 |
| 20260510093047 | 39 | 348 | 7.0 | 15.0 | 0.00 | 0.06 | 0.00 | 91 | 1011.3 |
| 20260510092538 | 39 | 321 | 6.0 | 15.0 | 0.00 | 0.06 | 0.00 | 91 | 1011.2 |
| 20260510092038 | 39 | 17 | 5.0 | 13.0 | 0.00 | 0.06 | 0.00 | 91 | 1011.2 |
| 20260510091538 | 39 | 14 | 6.0 | 13.0 | 0.00 | 0.06 | 0.00 | 90 | 1011.0 |
| 20260510091035 | 39 | 327 | 6.0 | 13.0 | 0.00 | 0.06 | 0.00 | 91 | 1011.0 |
| 20260510090534 | 39 | 300 | 5.0 | 12.0 | 0.00 | 0.06 | 0.00 | 91 | 1011.0 |
| 20260510090037 | 39 | 297 | 5.0 | 19.0 | 0.00 | 0.06 | 0.00 | 90 | 1010.9 |
| 20260510085531 | 39 | 9 | 5.0 | 19.0 | 0.00 | 0.06 | 0.00 | 90 | 1010.9 |
| 20260510085032 | 39 | 296 | 6.0 | 14.0 | 0.00 | 0.06 | 0.00 | 90 | 1010.8 |
| 20260510084533 | 39 | 337 | 6.0 | 13.0 | 0.00 | 0.06 | 0.00 | 90 | 1010.7 |
| 20260510084030 | 40 | 290 | 4.0 | 13.0 | 0.00 | 0.06 | 0.00 | 90 | 1010.6 |
| 20260510083518 | 40 | 273 | 5.0 | 18.0 | 0.00 | 0.06 | 0.00 | 90 | 1010.6 |
| 20260510083018 | 40 | 296 | 5.0 | 18.0 | 0.00 | 0.06 | 0.00 | 90 | 1010.5 |
| 20260510082518 | 40 | 323 | 3.0 | 13.0 | 0.00 | 0.06 | 0.00 | 90 | 1010.6 |
| 20260510082016 | 40 | 331 | 4.0 | 13.0 | 0.00 | 0.06 | 0.00 | 90 | 1010.5 |
| 20260510081523 | 40 | 248 | 5.0 | 13.0 | 0.00 | 0.06 | 0.00 | 90 | 1010.4 |
| 20260510081015 | 40 | 259 | 4.0 | 13.0 | 0.00 | 0.06 | 0.00 | 90 | 1010.3 |
| 20260510080514 | 40 | 307 | 6.0 | 13.0 | 0.00 | 0.06 | 0.00 | 90 | 1010.2 |
| 20260510080018 | 40 | 277 | 5.0 | 13.0 | 0.00 | 0.06 | 0.00 | 90 | 1010.2 |
| 20260510075511 | 40 | 313 | 4.0 | 11.0 | 0.00 | 0.06 | 0.00 | 90 | 1010.0 |
| 20260510075011 | 40 | 315 | 5.0 | 13.0 | 0.00 | 0.06 | 0.00 | 90 | 1009.9 |
| 20260510074510 | 40 | 341 | 5.0 | 13.0 | 0.00 | 0.06 | 0.00 | 89 | 1009.7 |
| 20260510074010 | 40 | 278 | 4.0 | 12.0 | 0.00 | 0.06 | 0.00 | 90 | 1009.5 |
| 20260510073508 | 40 | 9 | 8.0 | 12.0 | 0.00 | 0.06 | 0.00 | 90 | 1009.4 |
| 20260510073007 | 40 | 360 | 5.0 | 12.0 | 0.00 | 0.06 | 0.00 | 90 | 1009.4 |
| 20260510072507 | 40 | 265 | 5.0 | 11.0 | 0.00 | 0.06 | 0.00 | 90 | 1009.3 |
| 20260510072011 | 40 | 333 | 3.0 | 11.0 | 0.00 | 0.06 | 0.00 | 90 | 1009.3 |
| 20260510071506 | 40 | 285 | 5.0 | 12.0 | 0.00 | 0.06 | 0.00 | 90 | 1009.2 |
| 20260510071005 | 40 | 333 | 5.0 | 14.0 | 0.00 | 0.06 | 0.00 | 89 | 1009.3 |
| 20260510070505 | 40 | 344 | 4.0 | 15.0 | 0.00 | 0.06 | 0.00 | 89 | 1009.3 |
| 20260510070005 | 40 | 271 | 7.0 | 15.0 | 0.00 | 0.06 | 0.00 | 89 | 1009.2 |
| 20260510065504 | 41 | 252 | 5.0 | 15.0 | 0.00 | 0.06 | 0.00 | 89 | 1009.3 |
| 20260510065004 | 41 | 336 | 3.0 | 13.0 | 0.00 | 0.06 | 0.00 | 89 | 1009.2 |
| 20260510064506 | 41 | 300 | 6.0 | 13.0 | 0.00 | 0.06 | 0.00 | 89 | 1009.2 |
| 20260510064003 | 41 | 273 | 4.0 | 13.0 | 0.00 | 0.06 | 0.00 | 89 | 1009.1 |
| 20260510063550 | 41 | 309 | 6.0 | 13.0 | 0.00 | 0.06 | 0.00 | 89 | 1009.0 |
| 20260510063049 | 41 | 282 | 5.0 | 15.0 | 0.00 | 0.06 | 0.00 | 89 | 1008.9 |
| 20260510062549 | 41 | 360 | 5.0 | 14.0 | 0.00 | 0.06 | 0.00 | 89 | 1008.9 |
| 20260510062046 | 41 | 269 | 6.0 | 14.0 | 0.00 | 0.06 | 0.00 | 89 | 1008.7 |
| 20260510061550 | 41 | 305 | 5.0 | 15.0 | 0.00 | 0.06 | 0.00 | 89 | 1008.7 |
| 20260510061045 | 41 | 269 | 5.0 | 15.0 | 0.00 | 0.06 | 0.00 | 89 | 1008.7 |
| 20260510060544 | 41 | 323 | 6.0 | 15.0 | 0.00 | 0.06 | 0.00 | 88 | 1008.7 |
| 20260510060044 | 41 | 247 | 4.0 | 14.0 | 0.00 | 0.06 | 0.00 | 88 | 1008.7 |
| 20260510055542 | 41 | 235 | 5.0 | 14.0 | 0.00 | 0.06 | 0.00 | 88 | 1008.6 |
| 20260510055042 | 41 | 315 | 7.0 | 13.0 | 0.00 | 0.06 | 0.00 | 88 | 1008.5 |
| 20260510054547 | 41 | 311 | 7.0 | 15.0 | 0.00 | 0.06 | 0.00 | 88 | 1008.5 |
| 20260510054040 | 41 | 277 | 7.0 | 19.0 | 0.00 | 0.06 | 0.00 | 88 | 1008.4 |
| 20260510053539 | 41 | 301 | 8.0 | 19.0 | 0.00 | 0.06 | 0.00 | 87 | 1008.2 |
| 20260510053039 | 41 | 350 | 6.0 | 16.0 | 0.00 | 0.06 | 0.00 | 87 | 1008.1 |
| 20260510052538 | 41 | 360 | 7.0 | 16.0 | 0.00 | 0.06 | 0.00 | 87 | 1008.0 |
| 20260510052038 | 41 | 288 | 7.0 | 18.0 | 0.00 | 0.06 | 0.00 | 88 | 1008.0 |
| 20260510051539 | 41 | 282 | 7.0 | 21.0 | 0.00 | 0.06 | 0.00 | 87 | 1008.0 |
| 20260510051036 | 41 | 9 | 6.0 | 21.0 | 0.00 | 0.06 | 0.00 | 87 | 1007.9 |
| 20260510050537 | 41 | 318 | 8.0 | 20.0 | 0.00 | 0.06 | 0.00 | 86 | 1007.8 |
| 20260510050036 | 41 | 249 | 6.0 | 20.0 | 0.00 | 0.06 | 0.00 | 86 | 1007.7 |
| 20260510045533 | 41 | 234 | 9.0 | 19.0 | 0.00 | 0.06 | 0.00 | 86 | 1007.6 |
| 20260510045033 | 41 | 234 | 8.0 | 18.0 | 0.00 | 0.06 | 0.00 | 86 | 1007.6 |
| 20260510044531 | 41 | 323 | 8.0 | 16.0 | 0.00 | 0.06 | 0.00 | 86 | 1007.5 |
| 20260510044033 | 41 | 296 | 6.0 | 18.0 | 0.00 | 0.06 | 0.00 | 87 | 1007.5 |
| 20260510043530 | 41 | 231 | 8.0 | 18.0 | 0.00 | 0.06 | 0.00 | 87 | 1007.4 |
| 20260510043019 | 41 | 226 | 9.0 | 21.0 | 0.00 | 0.06 | 0.00 | 87 | 1007.2 |
| 20260510042510 | 41 | 265 | 11.0 | 21.0 | 0.00 | 0.06 | 0.00 | 86 | 1007.2 |
| 20260510042009 | 41 | 329 | 7.0 | 19.0 | 0.00 | 0.06 | 0.00 | 87 | 1007.0 |
| 20260510041507 | 41 | 260 | 8.0 | 16.0 | 0.00 | 0.06 | 0.00 | 86 | 1007.0 |
| 20260510041007 | 41 | 321 | 6.0 | 19.0 | 0.00 | 0.06 | 0.00 | 86 | 1006.8 |
| 20260510040507 | 42 | 205 | 9.0 | 19.0 | 0.00 | 0.06 | 0.00 | 86 | 1006.8 |
| 20260510040047 | 42 | 315 | 7.0 | 19.0 | 0.00 | 0.06 | 0.00 | 85 | 1006.7 |
| 20260510035546 | 42 | 290 | 8.0 | 22.0 | 0.00 | 0.06 | 0.00 | 86 | 1006.6 |
| 20260510035046 | 42 | 222 | 8.0 | 20.0 | 0.00 | 0.06 | 0.00 | 85 | 1006.5 |
| 20260510034545 | 42 | 40 | 6.0 | 23.0 | 0.00 | 0.06 | 0.00 | 85 | 1006.5 |
| 20260510034044 | 42 | 259 | 9.0 | 23.0 | 0.00 | 0.06 | 0.00 | 85 | 1006.3 |
| 20260510033544 | 42 | 277 | 8.0 | 21.0 | 0.00 | 0.06 | 0.00 | 85 | 1006.3 |
| 20260510033034 | 42 | 342 | 7.0 | 19.0 | 0.00 | 0.06 | 0.00 | 85 | 1006.3 |
| 20260510032530 | 42 | 283 | 8.0 | 19.0 | 0.00 | 0.06 | 0.00 | 85 | 1006.2 |
| 20260510032030 | 42 | 324 | 6.0 | 18.0 | 0.00 | 0.06 | 0.00 | 85 | 1006.2 |
| 20260510031541 | 42 | 244 | 6.0 | 19.0 | 0.00 | 0.06 | 0.00 | 85 | 1006.1 |
| 20260510031028 | 42 | 19 | 6.0 | 19.0 | 0.00 | 0.06 | 0.00 | 84 | 1006.1 |
| 20260510030526 | 42 | 302 | 5.0 | 15.0 | 0.00 | 0.06 | 0.00 | 84 | 1006.0 |
| 20260510030025 | 42 | 275 | 5.0 | 15.0 | 0.00 | 0.06 | 0.00 | 84 | 1005.9 |
| 20260510025524 | 42 | 302 | 4.0 | 19.0 | 0.00 | 0.06 | 0.00 | 83 | 1006.0 |
| 20260510025024 | 43 | 276 | 5.0 | 13.0 | 0.00 | 0.06 | 0.00 | 83 | 1005.9 |
| 20260510024534 | 43 | 317 | 6.0 | 13.0 | 0.00 | 0.06 | 0.00 | 83 | 1005.9 |
| 20260510024021 | 43 | 250 | 8.0 | 15.0 | 0.00 | 0.06 | 0.00 | 82 | 1005.8 |
| 20260510023520 | 43 | 266 | 4.0 | 18.0 | 0.00 | 0.06 | 0.00 | 82 | 1005.8 |
| 20260510023019 | 43 | 286 | 6.0 | 18.0 | 0.00 | 0.06 | 0.00 | 81 | 1005.8 |
| 20260510022522 | 44 | 271 | 6.0 | 12.0 | 0.00 | 0.06 | 0.00 | 80 | 1005.7 |
| 20260510022017 | 44 | 275 | 7.0 | 16.0 | 0.00 | 0.06 | 0.00 | 78 | 1005.7 |
| 20260510021517 | 44 | 337 | 7.0 | 19.0 | 0.00 | 0.06 | 0.00 | 78 | 1005.7 |
| 20260510021015 | 44 | 329 | 8.0 | 19.0 | 0.00 | 0.06 | 0.00 | 78 | 1005.6 |
| 20260510020514 | 44 | 242 | 7.0 | 18.0 | 0.00 | 0.06 | 0.00 | 80 | 1005.5 |
| 20260510020014 | 44 | 304 | 5.0 | 18.0 | 0.00 | 0.06 | 0.00 | 81 | 1005.4 |
| 20260510015512 | 44 | 296 | 7.0 | 18.0 | 0.00 | 0.06 | 0.00 | 81 | 1005.2 |
| 20260510015010 | 44 | 322 | 6.0 | 15.0 | 0.00 | 0.06 | 0.00 | 80 | 1005.1 |
| 20260510014510 | 44 | 254 | 6.0 | 15.0 | 0.00 | 0.06 | 0.00 | 80 | 1005.0 |
| 20260510014010 | 44 | 298 | 7.0 | 15.0 | 0.00 | 0.06 | 0.00 | 81 | 1005.0 |
| 20260510013507 | 44 | 312 | 6.0 | 14.0 | 0.00 | 0.06 | 0.00 | 82 | 1004.9 |
| 20260510013056 | 44 | 309 | 7.0 | 15.0 | 0.00 | 0.06 | 0.00 | 82 | 1004.9 |
| 20260510012557 | 44 | 265 | 6.0 | 14.0 | 0.00 | 0.06 | 0.00 | 82 | 1004.8 |
| 20260510012054 | 44 | 248 | 6.0 | 13.0 | 0.00 | 0.06 | 0.00 | 83 | 1004.8 |
| 20260510011556 | 44 | 309 | 6.0 | 13.0 | 0.00 | 0.06 | 0.00 | 83 | 1004.7 |
| 20260510011052 | 45 | 295 | 5.0 | 14.0 | 0.00 | 0.06 | 0.00 | 84 | 1004.6 |
| 20260510010552 | 45 | 321 | 6.0 | 14.0 | 0.00 | 0.06 | 0.00 | 84 | 1004.5 |
| 20260510010050 | 45 | 292 | 5.0 | 13.0 | 0.00 | 0.06 | 0.00 | 83 | 1004.5 |
| 20260510005548 | 45 | 246 | 4.0 | 15.0 | 0.00 | 0.06 | 0.00 | 83 | 1004.4 |
| 20260510005047 | 45 | 317 | 6.0 | 15.0 | 0.00 | 0.06 | 0.00 | 83 | 1004.3 |
| 20260510004550 | 46 | 252 | 5.0 | 19.0 | 0.00 | 0.06 | 0.00 | 83 | 1004.3 |
| 20260510004046 | 46 | 286 | 5.0 | 13.0 | 0.00 | 0.06 | 0.00 | 83 | 1004.2 |
| 20260510003546 | 46 | 269 | 6.0 | 13.0 | 0.00 | 0.06 | 0.00 | 82 | 1004.0 |
| 20260510003102 | 46 | 292 | 5.0 | 13.0 | 0.00 | 0.06 | 0.00 | 82 | 1004.0 |
| 20260510002543 | 46 | 309 | 5.0 | 16.0 | 0.00 | 0.06 | 0.00 | 84 | 1003.8 |
| 20260510002042 | 46 | 267 | 7.0 | 16.0 | 0.00 | 0.06 | 0.00 | 84 | 1003.7 |
| 20260510001543 | 46 | 317 | 5.0 | 11.0 | 0.00 | 0.06 | 0.00 | 85 | 1003.6 |
| 20260510001041 | 46 | 316 | 6.0 | 15.0 | 0.00 | 0.06 | 0.00 | 87 | 1003.4 |
| 20260510000541 | 46 | 267 | 6.0 | 19.0 | 0.00 | 0.06 | 0.00 | 88 | 1003.3 |
| 20260510000044 | 46 | 309 | 5.0 | 19.0 | 0.00 | 0.06 | 0.00 | 89 | 1003.3 |
| 20260509235539 | 46 | 286 | 4.0 | 13.0 | 0.00 | 0.06 | 0.00 | 90 | 1003.1 |
| 20260509235139 | 46 | 263 | 6.0 | 13.0 | 0.00 | 0.06 | 0.00 | 90 | 1003.0 |
| 20260509234552 | 46 | 322 | 6.0 | 13.0 | 0.00 | 0.06 | 0.00 | 91 | 1002.9 |
| 20260509234036 | 45 | 309 | 5.0 | 13.0 | 0.00 | 0.06 | 0.00 | 91 | 1002.8 |
| 20260509233536 | 45 | 336 | 5.0 | 13.0 | 0.00 | 0.06 | 0.00 | 92 | 1002.7 |
| 20260509233024 | 45 | 292 | 7.0 | 12.0 | 0.00 | 0.06 | 0.00 | 91 | 1002.5 |
| 20260509232523 | 45 | 300 | 5.0 | 11.0 | 0.00 | 0.06 | 0.00 | 91 | 1002.6 |
| 20260509232025 | 45 | 267 | 5.0 | 14.0 | 0.00 | 0.06 | 0.00 | 91 | 1002.5 |
| 20260509231530 | 44 | 287 | 7.0 | 14.0 | 0.00 | 0.06 | 0.00 | 91 | 1002.5 |
| 20260509231024 | 44 | 296 | 6.0 | 11.0 | 0.00 | 0.06 | 0.00 | 91 | 1002.5 |
| 20260509230523 | 44 | 285 | 3.0 | 12.0 | 0.00 | 0.06 | 0.00 | 91 | 1002.6 |
| 20260509230028 | 44 | 273 | 5.0 | 12.0 | 0.00 | 0.06 | 0.00 | 90 | 1002.6 |
| 20260509225519 | 44 | 261 | 5.0 | 13.0 | 0.00 | 0.06 | 0.00 | 90 | 1002.5 |
| 20260509225018 | 44 | 223 | 5.0 | 13.0 | 0.00 | 0.06 | 0.00 | 90 | 1002.4 |
| 20260509224518 | 45 | 250 | 4.0 | 11.0 | 0.00 | 0.06 | 0.00 | 90 | 1002.4 |
| 20260509224017 | 45 | 244 | 5.0 | 11.0 | 0.00 | 0.06 | 0.00 | 91 | 1002.3 |
| 20260509223515 | 45 | 256 | 3.0 | 10.0 | 0.00 | 0.06 | 0.00 | 91 | 1002.2 |
| 20260509223014 | 45 | 259 | 4.0 | 10.0 | 0.00 | 0.06 | 0.00 | 92 | 1002.1 |
| 20260509222513 | 45 | 265 | 3.0 | 10.0 | 0.00 | 0.06 | 0.00 | 92 | 1001.9 |
| 20260509222011 | 45 | 237 | 2.0 | 9.0 | 0.00 | 0.06 | 0.00 | 91 | 1001.7 |
| 20260509221510 | 45 | 240 | 3.0 | 13.0 | 0.00 | 0.06 | 0.00 | 91 | 1001.7 |
| 20260509221010 | 46 | 230 | 2.0 | 13.0 | 0.00 | 0.06 | 0.00 | 91 | 1001.6 |
| 20260509220509 | 46 | 233 | 2.0 | 11.0 | 0.00 | 0.06 | 0.00 | 91 | 1001.5 |
| 20260509220009 | 46 | 229 | 4.0 | 11.0 | 0.00 | 0.06 | 0.00 | 91 | 1001.4 |
| 20260509215509 | 46 | 247 | 5.0 | 12.0 | 0.00 | 0.06 | 0.00 | 92 | 1001.4 |
| 20260509215008 | 47 | 261 | 4.0 | 12.0 | 0.00 | 0.06 | 0.00 | 92 | 1001.2 |
| 20260509214509 | 46 | 270 | 6.0 | 12.0 | 0.00 | 0.06 | 0.00 | 93 | 1001.3 |
| 20260509214007 | 46 | 263 | 4.0 | 12.0 | 0.00 | 0.06 | 0.00 | 93 | 1001.2 |
| 20260509213508 | 46 | 301 | 2.0 | 11.0 | 0.00 | 0.06 | 0.00 | 93 | 1001.2 |
| 20260509213006 | 46 | 250 | 4.0 | 14.0 | 0.00 | 0.06 | 0.00 | 92 | 1001.2 |
| 20260509212548 | 46 | 205 | 5.0 | 15.0 | 0.00 | 0.06 | 0.00 | 92 | 1001.2 |
| 20260509212046 | 46 | 340 | 6.0 | 15.0 | 0.00 | 0.06 | 0.00 | 92 | 1001.3 |
| 20260509211545 | 46 | 271 | 3.0 | 12.0 | 0.00 | 0.06 | 0.00 | 92 | 1000.9 |
| 20260509211044 | 46 | 207 | 3.0 | 12.0 | 0.00 | 0.06 | 0.00 | 91 | 1000.5 |
| 20260509210543 | 47 | 227 | 4.0 | 11.0 | 0.00 | 0.06 | 0.00 | 92 | 1000.5 |
| 20260509210048 | 47 | 283 | 1.0 | 12.0 | 0.00 | 0.06 | 0.00 | 92 | 1000.4 |
| 20260509205524 | 47 | 223 | 4.0 | 16.0 | 0.00 | 0.06 | 0.00 | 92 | 1000.4 |
| 20260509205023 | 47 | 209 | 5.0 | 16.0 | 0.00 | 0.06 | 0.00 | 91 | 1000.4 |
| 20260509204522 | 47 | 186 | 5.0 | 14.0 | 0.00 | 0.06 | 0.00 | 90 | 1000.5 |
| 20260509204021 | 48 | 218 | 3.0 | 14.0 | 0.00 | 0.06 | 0.00 | 89 | 1000.5 |
| 20260509203519 | 48 | 204 | 6.0 | 18.0 | 0.00 | 0.06 | 0.00 | 88 | 1000.4 |
| 20260509203022 | 49 | 214 | 6.0 | 18.0 | 0.00 | 0.06 | 0.00 | 87 | 1000.4 |
| 20260509202602 | 49 | 220 | 6.0 | 15.0 | 0.00 | 0.06 | 0.00 | 86 | 1000.3 |
| 20260509202058 | 50 | 232 | 6.0 | 15.0 | 0.00 | 0.06 | 0.00 | 86 | 1000.3 |
| 20260509201557 | 50 | 215 | 5.0 | 13.0 | 0.00 | 0.06 | 0.00 | 86 | 1000.3 |
| 20260509201055 | 51 | 267 | 4.0 | 18.0 | 0.00 | 0.06 | 0.00 | 87 | 1000.3 |
| 20260509200555 | 51 | 205 | 5.0 | 18.0 | 0.00 | 0.06 | 0.00 | 89 | 1000.2 |
| 20260509191534 | 51 | 236 | 2.0 | 12.0 | 0.01 | 0.07 | 0.01 | 89 | 1000.7 |
| 20260509191023 | 51 | 161 | 5.0 | 16.0 | 0.01 | 0.07 | 0.01 | 87 | 1000.9 |
| 20260509190521 | 51 | 190 | 5.0 | 16.0 | 0.01 | 0.07 | 0.01 | 87 | 1001.0 |
| 20260509190021 | 51 | 229 | 2.0 | 14.0 | 0.01 | 0.07 | 0.01 | 85 | 1001.1 |
| 20260509185519 | 51 | 191 | 5.0 | 19.0 | 0.00 | 0.06 | 0.00 | 86 | 1000.9 |
| 20260509185018 | 50 | 170 | 4.0 | 9.0 | 0.00 | 0.06 | 0.00 | 88 | 1000.7 |
| 20260509184517 | 50 | 186 | 3.0 | 9.0 | 0.00 | 0.06 | 0.00 | 89 | 1000.4 |
| 20260509184014 | 50 | 174 | 3.0 | 9.0 | 0.00 | 0.06 | 0.00 | 90 | 1000.4 |
| 20260509183513 | 50 | 192 | 3.0 | 7.0 | 0.00 | 0.06 | 0.00 | 91 | 1000.4 |
| 20260509183021 | 49 | 173 | 3.0 | 7.0 | 0.00 | 0.06 | 0.00 | 91 | 1000.4 |
| 20260509182510 | 49 | 166 | 3.0 | 7.0 | 0.00 | 0.06 | 0.00 | 92 | 1000.5 |
| 20260509182011 | 49 | 141 | 2.0 | 6.0 | 0.00 | 0.06 | 0.00 | 93 | 1000.4 |
| 20260509181509 | 49 | 138 | 2.0 | 5.0 | 0.00 | 0.06 | 0.00 | 93 | 1000.6 |
| 20260509181008 | 48 | 138 | 1.0 | 5.0 | 0.00 | 0.06 | 0.00 | 93 | 1000.8 |
| 20260509180511 | 48 | 138 | 1.0 | 6.0 | 0.00 | 0.06 | 0.00 | 93 | 1001.1 |
| 20260509180005 | 48 | 136 | 3.0 | 6.0 | 0.00 | 0.06 | 0.00 | 94 | 1001.1 |
| 20260509175504 | 48 | 138 | 2.0 | 6.0 | 0.00 | 0.06 | 0.00 | 94 | 1001.3 |
| 20260509175005 | 47 | 136 | 2.0 | 6.0 | 0.00 | 0.06 | 0.00 | 94 | 1001.4 |